www.pogodaiklimat.ru

Погода и климат >> Архив погоды >> Индия >> Maharana Pratap Airport


ПОГОДА в Maharana Pratap Airport

  • Прогноз погоды в Maharana Pratap Airport
  • Монитор погоды в Maharana Pratap Airport
  • Климат города

АРХИВ ПОГОДЫ в Maharana Pratap Airport

Время (UTC), дата Ветер
(напр.,м/с)
 
Видим.   Явления Облачность Т
(С)
Тd
(С)
f
(%)
Тe
(С)
Тes
(С)
Комфортность P
(гПа)
Po
(гПа)
Тmin
(С)
Tmax
(С)
R
(мм)
R24
(мм)
S
(см)
00 19.02 СЗ 1 4000 м ясно +14.6 +7.7 63 +15 +15 1012.6 953.3
03 19.02 штиль 0 4000 м 3/0
[Ac trans]
+17.6 +7.4 51 +18 +21 1014.3 955.6 +12.6 +31.5
06 19.02 ЮВ 1 4000 м 3/0
[Ac trans]
+26.6 +7.6 30 +26 +39 жарко 1013.1 956.2
12 19.02 В 2 4000 м ясно +28.8 +5.2 22 +27 +28 жарко 1009.7 953.2 +30.4
18 19.02 штиль 0 4000 м ясно +18.0 +10.1 60 +18 +18 1014.3 955.6
21 19.02 штиль 0 4000 м ясно +15.4 +8.7 64 +15 +15 1014.0 954.8
00 20.02 штиль 0 4000 м ясно +14.6 +7.3 62 +14 +14 1013.9 954.6
03 20.02 СЗ 2 4000 м ясно +17.0 +8.0 55 +18 +21 1015.4 956.3 +12.6 +30.4
06 20.02 штиль 0 4000 м ясно +29.0 +7.9 27 +28 +47 жарко 1013.4 956.8
12 20.02 В 1 4000 м ясно +30.0 +3.8 19 +28 +29 жарко 1009.4 953.1 +31.8
18 20.02 штиль 0 4000 м ясно +18.0 +10.9 63 +18 +18 1013.5 954.9
21 20.02 штиль 0 4000 м ясно +16.4 +9.0 62 +16 +16 1012.8 953.9
00 21.02 СЗ 2 4000 м ясно +15.0 +7.3 60 +15 +15 1012.3 953.0
03 21.02 штиль 0 4000 м ясно +17.0 +7.6 54 +17 +21 1014.0 955.0 +13.5 +31.8
06 21.02 З 1 4000 м ясно +30.6 +1.5 15 +28 +44 жарко 1011.9 955.6
12 21.02 Ю 2 4000 м 4/4 900 м
[Sc]
+30.6 +5.6 21 +29 +29 жарко 1007.3 951.2 +32.6
18 21.02 штиль 0 4000 м мгла ясно +19.0 +7.9 48 +19 +19 1011.5 953.1
21 21.02 штиль 0 4000 м ясно +16.8 +7.8 55 +17 +17 1011.0 952.2
00 22.02 штиль 0 2000 м мгла ясно +15.0 +10.3 73 +15 +15 1010.5 951.4
03 22.02 штиль 0 4000 м мгла ясно +19.4 +9.7 53 +20 +24 1011.8 953.6 +14.0 +32.6
06 22.02 Ю 2 4000 м мгла ясно +29.4 +8.5 27 +29 +44 жарко 1010.7 954.4
12 22.02 Ю 3 4000 м ясно +31.4 +7.6 23 +30 +31 жарко 1006.0 950.3 +33.0
18 22.02 штиль 0 4000 м ясно +22.0 +11.8 52 +24 +24 комфорт 1012.8 955.0
21 22.02 штиль 0 4000 м ясно +18.0 +8.4 53 +18 +18 1012.4 953.8
00 23.02 штиль 0 4000 м ясно +16.0 +7.7 58 +16 +16 1010.7 951.6
03 23.02 штиль 0 4000 м 4/0
[Ci fib]
+18.8 +11.1 61 +19 +23 1011.9 953.5 +14.6 +33.0
06 23.02 ЮЗ 3 4000 м 6/3 900 м
[Sc Ci fib]
+31.0 +6.3 21 +29 +37 жарко 1010.3 954.1
12 23.02 З 3 4000 м 8/4 900 м
[Sc Ac trans]
+30.4 +4.6 20 +29 +29 жарко 1006.7 950.8 +32.5
18 23.02 штиль 0 4000 м мгла 4/4 900 м
[Sc]
+20.0 +11.3 57 +21 +21 комфорт 1011.2 953.0
21 23.02 штиль 0 4000 м мгла 3/3 900 м
[Sc]
+18.0 +10.5 62 +18 +18 1010.5 952.2
00 24.02 СЗ 1 2000 м мгла 3/3 900 м
[Sc]
+16.0 +10.6 70 +17 +17 1011.7 952.9
03 24.02 штиль 0 4000 м мгла 6/3 900 м
[Sc Ac trans]
+18.8 +12.3 66 +20 +22 1014.0 955.6 +14.8 +32.5
06 24.02 З 4 4000 м ясно +29.8 +6.5 23 +29 +38 жарко 1012.6 956.2
12 24.02 З 2 4000 м ясно +31.2 +5.5 20 +29 +30 жарко 1009.0 953.1 +32.8
18 24.02 штиль 0 4000 м мгла ясно +19.8 +11.5 59 +21 +21 комфорт 1014.5 956.2
00 25.02 СВ 2 4000 м мгла ясно +16.2 +7.9 58 +16 +16 1015.3 956.2
03 25.02 СВ 3 4000 м ясно +21.6 +9.1 45 +23 +26 комфорт 1016.7 958.6 +15.7 +32.8
06 25.02 В 2 4000 м ясно +30.2 +9.8 28 +30 +44 жарко 1015.8 959.4
12 25.02 В 2 4000 м ясно +29.6 +9.4 28 +29 +30 жарко 1011.7 955.4 +31.2
18 25.02 СЗ 1 4000 м мгла ясно +19.2 +0.9 29 +20 +20 1015.6 957.2
21 25.02 штиль 0 4000 м мгла ясно +17.0 +9.3 60 +17 +17 1015.3 956.2

 

Местоположение метеостанции Maharana Pratap Airport (Rajasthan, Индия): широта 24.62 долгота 73.88 высота над уровнем моря 514 м.

В архиве по умолчанию представлена погода в Maharana Pratap Airport за последнюю неделю. Архивные данные за месяц целиком и за предыдущие месяцы, начиная с января 2011 года, Вы можете получить, выбрав интересующий диапазон дат из раскрывающегося списка и нажав кнопку "Ввод!".

Внимание! Время в таблицах - всемирное. Для получения местного времени необходимо прибавить поправку, которая в Maharana Pratap Airport равна 5.5 ч.

Смотрите также архив погоды в соседних городах и на ближайших метеорологических станциях:

Погода в Chittorgarh (Rajasthan, Индия) (81 км)
Погода в Bhilwara (Rajasthan, Индия) (111 км)
Погода в Mount Abu (Rajasthan, Индия) (117 км)
Погода в Deesa (Gujarat, Индия) (176 км)
Погода в Ratlam (Madhya Pradesh, Индия) (187 км)
Погода в Gandhinagar (Gujarat, Индия) (194 км)
Погода в Jodhpur (Rajasthan, Индия) (206 км)
Погода в Kota (Rajasthan, Индия) (207 км)
Погода в Ahmedabad (Gujarat, Индия) (214 км)
Погода в Ajmer (Rajasthan, Индия) (217 км)

Пояснения к столбцам:

Ветер - указаны скорость ветра в м/с - средняя за 10 мин, порывы в срок и между сроками (в фигурных скобках) и направление, откуда дует ветер: С - северный, СВ - северо-восточный, В - восточный, ЮВ - юго-восточный, Ю - южный, ЮЗ - юго-западный, З - западный, СЗ - северо-западный.
Видимость - горизонтальная дальность видимости в метрах или километрах. При видимости от 1 до 10 км при отсутствии осадков обычно наблюдается дымка, при ухудшении видимости до 1 км и менее - туман. В сухую погоду видимость может ухудшаться дымом, пылью или мглою.
Явления - указаны атмосферные явления, наблюдавшиеся в срок или в последний час перед сроком; фигурными скобками обозначены явления, наблюдавшиеся между сроками (за 1-3 часа до срока); квадратными скобками обозначены град или гололедные отложения с указанием их диаметра в мм.
Облачность - указаны через наклонную черту общая и нижняя облачность в баллах и высота нижней границы облаков в метрах; квадратными скобками обозначены формы облаков: Ci - перистые, Cs - перисто-слоистые, Cc - перисто-кучевые, Ac - высококучевые, As - высокослоистые, Sc - слоисто-кучевые, Ns - слоисто-дождевые, Cu - кучевые, Cb - кучево-дождевые. Подробнее классификацию облаков см. в Атласе облаков (PDF).
T - Температура воздуха - температура, измеренная на высоте 2 м над землей.
Td - Температура точки росы - температура, при понижении до которой содержащийся в воздухе водяной пар достигнет насыщения.
f - Относительная влажность воздуха - влажноcть воздуха, измеренная на высоте 2 м над землей.
Te - Эффективная температура - температура, которую ощущает одетый по сезону человек в тени. Характеристика душности погоды. При расчете учитывается влияние влажности воздуха и скорости ветра на теплоощущения человека.
Tes - Эффективная температура на солнце - температура, которую ощущает человек, с поправкой на солнечный нагрев. Характеристика знойности погоды. Зависит от высоты солнца над горизонтом, облачности и скорости ветра. Ночью, в пасмурную погоду, а также при ветре 12 м/с и более поправка равна нулю.
P - Атмосферное давление - приведенное к уровню моря атмосферное давление.
Po - Атмосферное давление - измеренное на уровне метеостанции атмосферное давление.
Tmin - Минимальная температура - минимум температуры воздуха на высоте 2 м над землей.
Tmax - Максимальная температура - максимум температуры воздуха на высоте 2 м над землей.
R - Количество осадков - Количество выпавших осадков за период времени, мм. При наведении курсора мыши на число - период времени, за который выпало указанное количество осадков.
R24 - Количество осадков - Количество выпавших осадков за 24 часа, мм.
S - Снежный покров - Высота снежного покрова, см. При наведении курсора мыши на число - состояние снежного покрова и степень покрытия местности в баллах.